Lid_Strength_Index
5 5 5 7 8 6 8 8 10 9 7 6 5 5 5 5 4 4 4 3 3 3 2 2 2 1 1 1 1 1 1 0
5 4 5 6 5 8 8 13 14 11 10 10 7 6 5 5 5 4 4 4 3 3 2 2 1 1 1 1 1 1 0 0
6 7 7 7 7 7 7 8 12 13 11 6 6 6 6 5 5 5 4 4 3 3 2 2 1 1 1 1 1 1 1 0
7 5 5 5 7 7 9 10 9 9 10 5 5 5 5 5 4 4 4 3 3 3 2 2 2 1 1 1 1 1 0 0
8 7 5 7 6 6 6 7 9 11 9 5 5 4 4 4 4 4 4 3 3 3 3 2 2 2 1 1 1 1 0 1
10 10 8 8 7 6 7 9 9 8 8 6 5 5 5 4 4 3 4 4 3 3 3 2 2 1 1 1 1 1 1 1
7 7 7 7 7 7 8 7 9 8 8 6 5 5 5 4 4 4 4 4 4 3 3 2 2 1 1 1 0 0 1 1
8 7 7 8 7 7 7 7 7 7 7 5 5 4 5 5 5 5 4 4 3 3 2 2 2 1 1 1 1 0 0 1
10 7 7 9 8 7 7 6 6 8 6 5 6 5 5 5 5 4 4 4 3 3 2 2 2 1 1 1 0 0 0 0
10 8 13 7 5 6 6 6 5 5 5 5 5 5 4 4 4 4 4 3 3 2 2 1 1 1 0 0 0 1 0 0
10 10 8 7 7 7 7 7 5 6 5 5 5 4 4 3 3 3 3 2 2 1 1 1 1 1 0 1 1 1 1 1
8 11 12 9 6 5 5 9 5 5 6 6 5 8 6 3 3 2 2 2 2 1 1 1 1 1 1 1 1 1 1 1
9 10 9 6 5 5 10 10 5 5 5 5 6 5 3 2 2 2 2 2 1 1 2 1 1 1 1 1 2 1 0 0
9 11 12 5 5 9 6 4 4 4 4 4 4 3 3 3 2 2 2 2 1 2 2 1 1 1 2 2 1 0 1 1
8 9 6 4 5 4 3 4 4 4 3 3 4 3 3 3 3 2 2 2 1 2 2 1 1 1 2 1 1 0 1 1
7 6 5 4 3 3 3 3 3 3 3 3 4 3 3 3 3 3 2 2 2 2 3 3 2 2 2 1 1 1 2 2
7 5 5 4 4 3 3 3 3 3 3 3 3 3 3 3 3 3 3 3 2 3 3 3 2 2 1 1 1 2 2 2
8 5 5 5 3 3 3 3 3 3 3 3 3 3 3 4 3 3 3 2 2 2 2 2 2 2 1 1 1 2 2 2
5 3 3 3 3 2 3 3 3 3 3 4 3 3 3 4 3 3 3 2 3 3 2 2 2 2 1 1 1 1 2 2